Location: Newark
(46.2358°N, 112.1211°W)
Time: 09:31:15
(UTC+00:00)

DELFI C3 - Pass Details

Date: 07 July 2020
Orbit: 533 x 552 km, 97.4° (Epoch: 12 August)

Event Time Altitude Azimuth Distance (km) Brightness Sun altitude
Rises 04:22:34 0° 207° (SSW) 2,712 ? -8.8°
Reaches altitude 10° 04:25:20 10° 229° (SW) 1,827 ? -9.1°
Maximum altitude 04:27:53 17° 269° (W) 1,463 ? -9.4°
Drops below altitude 10° 04:30:28 10° 309° (NW) 1,840 ? -9.7°
Sets 04:33:17 0° 331° (NNW) 2,741 ? -10.1°
